Simultaneous Nadir Overpasses (SNOs) Predictions

Prediction of SNOs between AQUA and GOES-15 Satellite Orbit:

Table of predicted SNOs for the next 14.0 days since TLE Epoch: 6/12/2021
Index Date Time (AQUA) AQUA Lat,Lon GOES-15 Lat,Lon Distance(km) Time Diff (sec)
1 06/12/2021 21:51:49 0.88,-124.23 -0.04,-128.43 479.06 80
2 06/13/2021 10:13:05 0.20,-129.39 0.04,-128.51 99.57 80
3 06/15/2021 10:00:53 -0.39,-126.42 0.04,-128.49 235.19 80
4 06/15/2021 22:22:17 -0.71,-131.61 -0.04,-128.41 364.45 80
5 06/17/2021 22:10:05 -0.11,-128.65 -0.04,-128.39 30.00 80
6 06/19/2021 21:57:53 0.50,-125.69 -0.05,-128.36 303.93 80
7 06/20/2021 10:19:10 0.53,-130.86 0.04,-128.44 274.40 80
8 06/22/2021 10:06:58 -0.08,-127.90 0.03,-128.41 58.42 80
9 06/24/2021 09:54:46 -0.69,-124.93 0.03,-128.37 390.47 80
10 06/24/2021 22:16:10 -0.40,-130.13 -0.02,-128.27 210.46 80
